This demonstration page uses our WeatherBlox Daily Observations layout. Learn more.

Left ArrowRight Arrow

44.89941, -97.11507

Hourly Observations for November 23, 2019

Temp ( °F °C ) Dew Point ( °F °C ) Humidity (%) Winds ( mph kmh ) Pressure ( in mb ) Visibility ( mi km ) Precip ( " mm )
12:53 am 00:53 Clear 30 -1.1 20 -6.7 66 66 SW 12 19 29.83 1010 10 16 0.00 0.00
1:53 am 01:53 Clear 30 -1.1 21 -6.1 69 69 SW 14 22 29.80 1009 10 16 0.00 0.00
2:53 am 02:53 Clear 30 -1.1 22 -5.6 72 72 WSW 13 20 29.80 1009 10 16 0.00 0.00
3:53 am 03:53 Clear 28 -2.2 22 -5.6 78 78 SW 9 15 29.78 1009 10 16 0.00 0.00
4:53 am 04:53 Clear 25 -3.9 21 -6.1 85 85 WSW 9 15 29.80 1009 10 16 0.00 0.00
5:53 am 05:53 Clear 28 -2.2 23 -5 81 81 NW 3 6 29.80 1009 10 16 0.00 0.00
6:53 am 06:53 Clear 29 -1.7 23 -5 78 78 NW 8 13 29.81 1010 10 16 0.00 0.00
7:53 am 07:53 Sunny 28 -2.2 24 -4.4 85 85 WNW 9 15 29.83 1010 10 16 0.00 0.00
8:53 am 08:53 Sunny 32 0 26 -3.3 79 79 WNW 9 15 29.83 1010 10 16 0.00 0.00
9:53 am 09:53 Sunny 35 1.7 28 -2.2 76 76 NW 10 17 29.83 1010 10 16 0.00 0.00
10:53 am 10:53 Sunny 39 3.9 29 -1.7 67 67 WNW 12 19 29.83 1010 10 16 0.00 0.00
11:53 am 11:53 Sunny 41 5 30 -1.1 65 65 WNW 16 26 29.82 1010 10 16 0.00 0.00
12:53 pm 12:53 Sunny 43 6.1 31 -0.6 63 63 WNW 12 19 29.80 1009 10 16 0.00 0.00
1:53 pm 13:53 Sunny 45 7.2 31 -0.6 58 58 W 14 22 29.78 1008 10 16 0.00 0.00
3:53 pm 15:53 Sunny 44 6.7 32 0 63 63 WSW 8 13 29.77 1008 10 16 0.00 0.00
4:53 pm 16:53 Sunny 39 3.9 30 -1.1 70 70 SW 8 13 29.77 1008 10 16 0.00 0.00
5:53 pm 17:53 Clear 39 3.9 31 -0.6 73 73 W 9 15 29.77 1008 10 16 0.00 0.00
6:53 pm 18:53 Clear 36 2.2 29 -1.7 76 76 WSW 8 13 29.76 1008 10 16 0.00 0.00
7:53 pm 19:53 Clear 39 3.9 29 -1.7 67 67 W 8 13 29.77 1008 10 16 0.00 0.00
8:53 pm 20:53 Clear 37 2.8 29 -1.7 73 73 W 9 15 29.76 1008 10 16 0.00 0.00
9:53 pm 21:53 Clear 35 1.7 28 -2.2 76 76 WSW 10 17 29.73 1007 10 16 0.00 0.00
10:53 pm 22:53 Clear 32 0 27 -2.8 82 82 S 5 7 29.72 1007 10 16 0.00 0.00
11:53 pm 23:53 Clear 32 0 26 -3.3 79 79 Calm 29.71 1006 10 16 0.00 0.00

Powered by AerisWeather